Weather reports worldwide

Advertisment
Aultbea, United Kingdom (3034): temperature & dewpoint: 21.04.2018 00:00:00 - 27.04.2018 00:00:00 (BST)Aultbea, United Kingdom (3034): temperature -20cm & temperature -100cm: 21.04.2018 00:00:00 - 27.04.2018 00:00:00 (BST)Aultbea, United Kingdom (3034): wind speed & gusts: 21.04.2018 00:00:00 - 27.04.2018 00:00:00 (BST)Aultbea, United Kingdom (3034): wind direction: 21.04.2018 00:00:00 - 27.04.2018 00:00:00 (BST)Aultbea, United Kingdom (3034): reduced air pressure: 21.04.2018 00:00:00 - 27.04.2018 00:00:00 (BST)Aultbea, United Kingdom (3034): visibility: 21.04.2018 00:00:00 - 27.04.2018 00:00:00 (BST)Aultbea, United Kingdom (3034): precipitation: 21.04.2018 00:00:00 - 27.04.2018 00:00:00 (BST)
Date & Time tt [°C] td [°C] tt -20cm [°C] tt -100cm [°C] ff [km/h] ff [kn] fx [km/h] fx [kn] dd ppp [hPa] vv [km] rr [mm]
27.04.2018 00:00:00 - - - - - - - - - - - -
26.04.2018 23:00:00 6,2 4,2 - - 9 5 - - SW 1007,3 16 0,2
26.04.2018 22:00:00 6,7 4,5 - - 13 7 - - SW 1007,1 50 0,0
26.04.2018 21:00:00 6,8 4,5 - - 8 4 - - WSW 1006,7 50 0,0
26.04.2018 20:00:00 6,8 4,5 - - 8 4 - - W 1006,4 35 0,8
26.04.2018 19:00:00 8,3 5,2 - - 11 6 - - W 1006,1 17 0,0
26.04.2018 18:00:00 8,4 5,1 - - 11 6 - - W 1005,7 26 0,0
26.04.2018 17:00:00 8,6 5,4 - - 13 7 - - W 1005,3 40 0,0
26.04.2018 16:00:00 9,1 5,7 - - 16 9 - - W 1005,0 35 0,0
26.04.2018 15:00:00 7,6 6,2 - - 15 8 - - W 1004,5 30 0,4
26.04.2018 14:00:00 7,7 5,7 - - 18 10 - - W 1003,8 7 2,0
26.04.2018 13:00:00 8,8 5,1 - - 21 11 - - WSW 1003,1 40 0,2
26.04.2018 12:00:00 8,2 5,8 - - 21 11 - - WSW 1002,5 27 0,0
26.04.2018 11:00:00 7,4 5,0 - - 22 12 - - WSW 1002,0 16 0,2
26.04.2018 10:00:00 7,3 4,9 9,4 8,5 22 12 - - WSW 1001,4 14 0,0
26.04.2018 09:00:00 7,1 5,4 - - 18 10 - - WSW 1000,9 30 0,8
26.04.2018 08:00:00 6,9 5,0 - - 28 15 - - SW 1000,4 14 0,0
26.04.2018 07:00:00 6,5 4,4 - - 28 15 - - SW 1000,1 40 0,0
26.04.2018 06:00:00 6,1 4,0 - - 22 12 - - SW 1000,0 50 0,0
26.04.2018 05:00:00 5,8 3,8 - - 18 10 - - WSW 1000,1 50 0,8
26.04.2018 04:00:00 6,1 4,5 - - 16 9 - - WSW 1000,0 12 1,0
26.04.2018 03:00:00 6,6 4,2 - - 16 9 - - SW 999,8 45 0,0
26.04.2018 02:00:00 6,6 4,7 - - 18 10 - - SW 999,9 50 0,0
26.04.2018 01:00:00 6,8 4,5 - - 15 8 - - SW 999,8 45 0,0
26.04.2018 00:00:00 6,7 4,9 - - 24 13 - - SSW 999,7 40 0,0
25.04.2018 23:00:00 6,5 4,9 - - 21 11 - - SW 999,9 17 1,4
25.04.2018 22:00:00 6,4 4,2 - - 21 11 52 28 SSW 1000,2 50 0,2
25.04.2018 21:00:00 7,0 4,4 - - 24 13 - - S 1000,2 45 0,0
25.04.2018 20:00:00 7,8 4,4 - - 26 14 - - SSW 1000,0 45 0,0
25.04.2018 19:00:00 8,7 5,1 - - 24 13 - - SSW 999,8 35 0,0
25.04.2018 18:00:00 8,7 5,0 - - 26 14 - - SSW 999,9 30 0,0
25.04.2018 17:00:00 8,7 5,3 - - 29 16 - - SSW 999,8 15 0,0
25.04.2018 16:00:00 8,5 5,5 - - 26 14 - - SSW 1000,1 20 0,6
25.04.2018 15:00:00 6,4 4,4 - - 22 12 48 26 WSW 1000,3 18 1,2
25.04.2018 14:00:00 6,6 3,6 - - 35 19 52 28 SSW 1000,3 4,5 1,0
25.04.2018 13:00:00 7,9 4,0 - - 22 12 - - WSW 1000,0 30 0,0
25.04.2018 12:00:00 8,2 4,1 - - 26 14 50 27 SSW 1000,1 29 0,2
25.04.2018 11:00:00 8,6 5,8 - - 26 14 - - SW 999,9 30 0,6
25.04.2018 10:00:00 8,4 6,1 9,5 8,5 24 13 - - SSW 999,8 26 0,0
25.04.2018 09:00:00 8,1 4,6 - - 26 14 - - SSW 999,7 14 0,0
25.04.2018 08:00:00 7,8 5,3 - - 28 15 - - SSW 999,8 35 0,0
25.04.2018 07:00:00 7,3 5,5 - - 21 11 - - SSW 999,8 20 0,2
25.04.2018 06:00:00 7,1 5,3 - - 21 11 - - S 999,9 30 0,0
25.04.2018 05:00:00 7,1 5,6 - - 16 9 - - S 1000,3 30 0,0
25.04.2018 04:00:00 6,8 5,1 - - 18 10 - - S 1000,7 40 0,0
25.04.2018 03:00:00 6,7 5,0 - - 15 8 - - SSW 1001,2 35 0,0
25.04.2018 02:00:00 7,1 5,5 - - 18 10 - - SSW 1001,6 30 0,0
25.04.2018 01:00:00 7,1 5,5 - - 24 13 - - SSW 1001,7 35 0,0
25.04.2018 00:00:00 7,4 5,8 - - 21 11 - - SSW 1002,1 30 0,0
24.04.2018 23:00:00 7,1 5,7 - - 21 11 - - SSW 1002,2 28 0,0
24.04.2018 22:00:00 7,3 5,6 - - 21 11 - - SSW 1002,5 45 0,0
24.04.2018 21:00:00 7,9 5,3 - - 15 8 - - SSW 1002,4 40 0,0
24.04.2018 20:00:00 7,9 5,3 - - 13 7 - - SW 1002,3 30 0,0
24.04.2018 19:00:00 9,0 5,8 - - 13 7 - - WSW 1002,5 10 0,0
24.04.2018 18:00:00 9,0 5,8 - - 24 13 - - SSW 1002,8 45 0,0
24.04.2018 17:00:00 9,2 5,1 - - 24 13 54 29 SW 1003,1 50 0,6
24.04.2018 16:00:00 9,8 6,6 - - 18 10 - - SSW 1003,2 30 0,0
24.04.2018 15:00:00 8,6 6,3 - - 16 9 - - WSW 1003,5 35 1,8
24.04.2018 14:00:00 9,0 5,1 - - 26 14 - - SW 1003,8 40 0,0
24.04.2018 13:00:00 9,8 6,6 - - 21 11 - - SW 1004,0 40 0,0
24.04.2018 12:00:00 6,5 4,2 - - 26 14 48 26 W 1004,4 7 0,6
24.04.2018 11:00:00 8,5 6,3 - - 21 11 - - WSW 1004,1 24 0,4
24.04.2018 10:00:00 8,4 5,1 9,4 8,5 28 15 - - WSW 1003,8 23 0,0
24.04.2018 09:00:00 8,5 6,0 - - 26 14 - - SW 1003,7 17 0,0
24.04.2018 08:00:00 7,0 5,3 - - 22 12 - - WSW 1003,0 20 0,2
24.04.2018 07:00:00 6,6 4,6 - - 28 15 - - WSW 1002,4 15 0,4
24.04.2018 06:00:00 6,9 4,5 - - 26 14 - - WSW 1002,1 24 0,0
24.04.2018 05:00:00 6,8 4,4 - - 26 14 46 25 WSW 1002,1 19 0,0
24.04.2018 04:00:00 7,1 5,0 - - 24 13 52 28 WSW 1001,9 21 0,0
24.04.2018 03:00:00 7,3 5,2 - - 24 13 - - WSW 1001,5 19 0,0
24.04.2018 02:00:00 7,7 5,6 - - 26 14 46 25 WSW 1001,6 19 0,2
24.04.2018 01:00:00 7,6 5,9 - - 24 13 50 27 WSW 1001,6 12 0,2
24.04.2018 00:00:00 7,6 7,1 - - 28 15 - - WSW 1001,0 12 0,4
23.04.2018 23:00:00 7,1 6,7 - - 5 3 - - SSW 1000,6 2,6 0,4
23.04.2018 22:00:00 7,1 6,4 - - 2 1 - - S 1000,3 2,8 0,6
23.04.2018 21:00:00 7,5 6,5 - - 4 2 - - NE 999,7 4,6 0,2
23.04.2018 20:00:00 7,3 6,1 - - 4 2 - - ESE 999,4 19 0,2
23.04.2018 19:00:00 7,7 6,3 - - 11 6 - - SSW 1000,1 14 0,2
23.04.2018 18:00:00 7,7 6,3 - - 16 9 - - S 1001,2 11 0,2
23.04.2018 17:00:00 7,9 6,3 - - 28 15 - - SSW 1002,2 6 0,2
23.04.2018 16:00:00 8,7 5,6 - - 28 15 - - SW 1002,6 30 0,2
23.04.2018 15:00:00 9,0 6,5 - - 29 16 - - SW 1003,0 30 0,0
23.04.2018 14:00:00 7,9 5,9 - - 26 14 - - SW 1003,9 4,0 0,2
23.04.2018 13:00:00 8,7 5,9 - - 29 16 - - SW 1003,9 21 0,0
23.04.2018 12:00:00 9,0 6,5 - - 26 14 46 25 SW 1004,1 45 0,0
23.04.2018 11:00:00 9,1 5,7 - - 26 14 - - SW 1004,0 40 0,0
23.04.2018 10:00:00 9,0 6,5 9,7 8,5 21 11 - - WSW 1003,7 35 0,2
23.04.2018 09:00:00 8,2 6,5 - - 22 12 - - SW 1003,7 40 0,0
23.04.2018 08:00:00 8,3 6,5 - - 16 9 - - WSW 1003,2 28 0,0
23.04.2018 07:00:00 7,7 6,6 - - 13 7 - - WSW 1002,8 29 0,0
23.04.2018 06:00:00 7,9 6,5 - - 16 9 - - W 1001,9 30 0,0
23.04.2018 05:00:00 7,9 7,1 - - 16 9 - - W 1001,2 45 0,0
23.04.2018 04:00:00 8,1 7,2 - - 22 12 - - WSW 1000,2 26 0,0
23.04.2018 03:00:00 8,1 7,3 - - 22 12 - - WSW 999,6 25 0,2
23.04.2018 02:00:00 8,1 7,5 - - 24 13 - - WSW 999,0 8 0,4
23.04.2018 01:00:00 7,9 7,1 - - 16 9 - - SW 998,7 3,0 0,4
23.04.2018 00:00:00 8,2 7,0 - - 22 12 - - SSW 998,4 28 0,0
22.04.2018 23:00:00 8,3 6,9 - - 26 14 - - SSW 998,5 16 0,0
22.04.2018 22:00:00 8,3 7,4 - - 26 14 - - SSW 998,4 25 0,4
22.04.2018 21:00:00 8,5 7,4 - - 24 13 - - S 998,0 7 0,2
22.04.2018 20:00:00 8,3 7,0 - - 24 13 - - S 998,2 4,0 0,2
22.04.2018 19:00:00 8,5 6,4 - - 26 14 - - S 998,6 35 0,0
22.04.2018 18:00:00 8,8 6,0 - - 31 17 - - S 998,9 35 0,0
22.04.2018 17:00:00 9,5 6,0 - - 26 14 - - SSW 999,3 45 0,0
22.04.2018 16:00:00 8,5 6,0 - - 24 13 - - SSW 1000,0 24 0,2
22.04.2018 15:00:00 8,4 6,6 - - 29 16 - - SSW 1000,4 14 0,4
22.04.2018 14:00:00 8,8 6,9 - - 24 13 - - SW 1000,1 35 0,0
22.04.2018 13:00:00 8,8 7,7 - - 26 14 - - SSW 999,8 17 0,2
22.04.2018 12:00:00 8,7 7,5 - - 22 12 - - SSW 1000,0 13 0,2
22.04.2018 11:00:00 8,8 7,3 - - 24 13 - - S 1000,4 12 0,2
22.04.2018 10:00:00 8,8 6,9 9,7 8,5 26 14 46 25 S 1000,6 13 0,2
22.04.2018 09:00:00 9,4 6,4 - - 31 17 - - S 1000,8 16 0,0
22.04.2018 08:00:00 8,0 6,3 - - 4 2 - - SSE 1001,1 30 0,0
22.04.2018 07:00:00 6,6 5,4 - - 5 3 - - E 1001,4 50 0,0
22.04.2018 06:00:00 6,0 5,4 - - 5 3 - - E 1002,1 45 0,0
22.04.2018 05:00:00 6,6 6,1 - - 8 4 - - NW 1002,9 30 0,0
22.04.2018 04:00:00 4,4 3,6 - - 4 2 - - E 1003,1 28 0,0
22.04.2018 03:00:00 5,0 3,7 - - 2 1 - - ESE 1003,9 40 0,0
22.04.2018 02:00:00 5,3 4,1 - - 4 2 - - ENE 1005,2 35 0,0
22.04.2018 01:00:00 6,9 5,5 - - 4 2 - - E 1006,1 50 0,0
22.04.2018 00:00:00 8,2 6,1 - - 2 1 - - ENE 1007,2 40 0,0
21.04.2018 23:00:00 8,9 6,2 - - 2 1 - - SSE 1008,0 45 0,0
21.04.2018 22:00:00 10,9 6,1 - - 5 3 - - NNE 1009,0 40 0,0
21.04.2018 21:00:00 10,5 5,8 - - 11 6 - - NNE 1009,9 40 0,0
21.04.2018 20:00:00 12,0 6,5 - - 2 1 - - S 1010,5 45 0,0
21.04.2018 19:00:00 12,3 7,1 - - 8 4 - - SSW 1011,5 40 0,0
21.04.2018 18:00:00 12,3 6,6 - - 18 10 - - SSW 1012,4 40 0,0
21.04.2018 17:00:00 12,5 6,4 - - 22 12 - - SSW 1013,5 40 0,0
21.04.2018 16:00:00 12,1 5,8 - - 26 14 - - SSW 1014,3 40 0,0
21.04.2018 15:00:00 12,7 5,8 - - 29 16 - - S 1015,0 40 0,0
21.04.2018 14:00:00 13,0 4,8 - - 24 13 - - S 1015,9 40 0,0
21.04.2018 13:00:00 12,0 5,0 - - 22 12 - - S 1016,4 45 0,0
21.04.2018 12:00:00 10,9 5,0 - - 22 12 - - S 1017,5 45 0,0
21.04.2018 11:00:00 10,8 4,4 - - 29 16 - - S 1018,1 50 0,0
21.04.2018 10:00:00 9,8 5,1 10,0 8,5 24 13 - - S 1018,8 45 0,0
21.04.2018 09:00:00 9,4 5,6 - - 21 11 - - S 1019,2 50 0,0
21.04.2018 08:00:00 8,5 5,8 - - 18 10 - - S 1019,5 45 0,0
21.04.2018 07:00:00 7,5 5,5 - - 18 10 - - SSW 1019,7 30 0,0
21.04.2018 06:00:00 6,4 4,5 - - 11 6 - - SSW 1020,0 30 0,0
21.04.2018 05:00:00 7,1 5,1 - - 18 10 - - SSW 1020,3 30 0,0
21.04.2018 04:00:00 7,0 5,3 - - 15 8 - - S 1020,9 28 0,0
21.04.2018 03:00:00 7,3 5,3 - - 15 8 - - S 1021,4 30 0,0
21.04.2018 02:00:00 7,3 5,5 - - 15 8 - - S 1021,9 30 0,0
21.04.2018 01:00:00 6,8 5,5 - - 9 5 - - S 1022,1 20 0,0
21.04.2018 00:00:00 7,8 6,2 - - 16 9 - - S 1022,1 22 0,0

tt = temperature
td = dewpoint
tt -20cm = temperature -20cm
tt -100cm = temperature -100cm
ff = wind speed
fx = gusts
dd = wind direction
ppp = reduced air pressure
vv = visibility
rr = precipitation

Next stations